User: anonymous   Login
Location: Unspecified
(0.0000°N, 0.0000°E)
Time: 21:30:18
(UTC+00:00)
Language:

TBA - TO BE ASSIGNED - Orbit

View from above orbital plane
View from above orbital plane
View from above satellite
View from above satellite

Ground track
Ground track

The orbit is defined by the following mean orbital elements,

1 68861U          26145.58335647 +.00000000 +00000-0 +68606-3 0 00000
2 68861  97.2851 160.3685 0001049  90.1739 343.5019 15.49169347    09
Epoch (UTC): 25 May 2026 14:00:01
Eccentricity: 0.0001049
inclination: 97.2851°
perigee height: 418 km
apogee height: 420 km
right ascension of ascending node: 160.3685°
argument of perigee: 90.1739°
revolutions per day: 15.49169347
mean anomaly at epoch: 343.5019°

The dashed part of the orbit path shows where the satellite is in the earth's shadow,  

DLR